Location: Frizzleburg
(41.0764°N, 80.4548°W)
Time: 05:00:08
(UTC+00:00)

SeaSat 1 - Pass Details

Date: 17 November 2019
Orbit: 745 x 747 km, 108.0° (Epoch: 06 December)

Event Time Altitude Azimuth Distance (km) Brightness Sun altitude
Rises 00:06:49 0° 173° (S) 3,171 5.7 -23.4°
Reaches altitude 10° 00:09:13 10° 182° (S) 2,252 5.0 -23.9°
Maximum altitude 00:13:46 38° 250° (WSW) 1,135 3.8 -24.7°
Drops below altitude 10° 00:18:20 10° 318° (NW) 2,268 5.4 -25.6°
Sets 00:20:46 0° 326° (NW) 3,197 6.1 -26.0°
